#timestamp,LO_Frequency,Hit,StdDev 
1645459215.9,286047004.4,N
1645459235.7,286047001.3,N
1645459255.5,286046999.8,N
1645459275.4,286046999.9,N
1645459295.2,286047000.4,N
1645459315.0,286047000.2,N
1645459315.9,286047000.2,N
1645459335.8,286047002.6,N
1645459355.6,286047000.2,N
1645459375.5,286047000.0,N
1645459395.3,286047002.2,N
1645459415.1,286047002.1,N
1645459435.9,286047001.5,N
1645459455.7,286047004.3,Y
1645459475.6,286047000.1,P
1645459495.4,286047001.0,N
1645459515.2,286047000.2,N
1645459535.1,286047000.9,N
1645459536.0,286047000.9,N
1645459555.8,286047001.5,Y
1645459575.6,286046999.9,P
1645459595.5,286047002.7,P
1645459615.3,286047002.1,N
1645459635.2,286047002.3,N
1645459655.9,286047000.2,N
1645459675.7,286046998.8,N
1645459695.6,286046998.3,N
1645459715.4,286047000.8,N
1645459735.2,286047000.5,N
1645459755.1,286046998.1,N
1645459756.0,286046998.1,N
1645459775.8,286046998.9,N
1645459795.7,286047000.8,N
1645459815.5,286047000.5,N
1645459835.3,286046999.7,N
1645459855.2,286046998.1,N
1645459875.0,286047000.9,N
1645459875.9,286047000.9,N
1645459895.7,286047001.2,N
1645459915.6,286047000.2,N
1645459935.4,286046999.7,N
1645459955.3,286047000.0,N
1645459975.1,286047002.5,N
1645459976.0,286047002.5,N
1645459995.8,286047002.2,N
1645460015.7,286047001.3,N
1645460035.5,286047004.3,Y
1645460055.4,286047001.6,P
1645460075.2,286047001.5,N
1645460095.0,286047002.4,P
1645460095.9,286047002.4,Y
1645460115.8,286047000.6,P
1645460135.6,286047000.5,N
1645460155.4,286047001.2,N
1645460175.3,286046998.9,N
1645460195.1,286046999.3,N
1645460215.9,286046996.7,Y
1645460235.7,286046996.9,P
1645460255.5,286046996.9,N
1645460275.4,286046997.8,N
1645460295.2,286046995.3,Y
1645460315.1,286046997.2,P
1645460316.0,286046997.2,P
1645460335.8,286046997.6,P
1645460355.6,286046997.8,Y
1645460375.5,286047000.4,P
1645460395.3,286046999.9,N
1645460415.2,286046999.8,N
1645460435.9,286047000.0,N
1645460455.7,286046999.7,N
1645460475.6,286047002.8,N
1645460495.4,286047001.4,N
1645460515.2,286047000.7,N
1645460535.1,286046998.5,N
1645460536.0,286046998.5,N
1645460555.8,286047001.1,N
1645460575.7,286047000.2,N
1645460595.5,286047002.8,N
1645460615.3,286047000.4,N
1645460635.2,286046999.8,N
1645460655.9,286047002.3,N
1645460675.7,286047002.5,N
1645460695.6,286047001.7,N
1645460715.4,286047001.5,N
1645460735.2,286047004.2,N
1645460755.1,286047004.4,N
1645460756.0,286047004.4,N
1645460775.8,286047004.2,N
1645460795.7,286047001.3,N
1645460815.5,286047004.2,N
1645460835.3,286047004.2,N
1645460855.2,286047004.0,N
1645460875.0,286047003.8,N
1645460875.9,286047003.8,N
1645460895.8,286047004.4,N
1645460915.6,286047002.1,N
1645460935.4,286047000.1,N
1645460955.3,286046999.7,N
1645460975.1,286047002.3,N
1645460995.8,286047001.3,N
1645461015.7,286047001.4,N
1645461035.5,286046999.8,N
1645461055.4,286047004.3,N
1645461075.2,286047002.8,N
1645461095.0,286046999.9,N
1645461095.9,286046999.9,N
1645461115.8,286046999.7,N
1645461135.6,286047001.8,N
1645461155.5,286047002.8,N
1645461175.3,286046999.7,N
1645461195.1,286047004.2,N
1645461215.9,286047004.2,N
1645461235.7,286047004.0,N
1645461255.5,286047003.8,N
1645461275.4,286047001.5,N
1645461295.2,286047001.6,N
1645461315.1,286047004.3,N
1645461316.0,286047004.3,N
1645461335.8,286047001.6,N
1645461355.6,286047005.4,Y
1645461375.5,286047001.5,P
1645461395.7,286047001.6,P
1645461415.6,286047002.8,P
1645461435.4,286047002.4,Y
1645461455.2,286047000.3,P
1645461475.1,286047002.3,N
1645461476.0,286047002.3,N
1645461495.8,286047001.5,N
1645461515.6,286047002.5,Y
1645461535.5,286047002.6,P
1645461555.3,286047000.4,N
1645461575.2,286047001.1,N
1645461595.9,286047001.2,N
1645461615.7,286047000.5,N
1645461635.6,286046998.1,N
1645461655.4,286047000.9,N
1645461675.2,286047000.4,N
1645461695.1,286046998.1,N
1645461696.0,286046998.1,N
1645461715.8,286046998.4,N
1645461735.7,286046998.7,N
1645461755.5,286046999.3,N
1645461775.3,286046998.4,N
1645461795.2,286047000.8,N
1645461815.0,286046998.4,N
1645461815.9,286046998.4,N
1645461835.8,286046999.3,N
1645461855.6,286046998.9,N
1645461875.4,286046999.1,N
1645461895.3,286046998.9,N
1645461915.1,286046994.9,Y
1645461935.8,286046999.3,P
1645461955.7,286046996.5,P
1645461975.5,286046999.0,N
1645461995.4,286046998.7,N
1645462015.2,286046999.4,N
1645462035.0,286046998.6,N
1645462035.9,286046998.6,N
1645462055.8,286047001.0,N
1645462075.6,286046998.3,N
1645462095.5,286046998.5,N
1645462115.3,286046999.4,N
1645462135.1,286046998.3,N
1645462155.9,286046999.4,N
1645462175.7,286046999.0,N
1645462195.5,286046999.0,N
1645462215.4,286046998.5,N
1645462235.2,286046999.6,N
1645462255.1,286046997.0,Y
1645462256.0,286046997.0,P
1645462275.8,286046998.8,N
1645462295.6,286046999.4,N
1645462315.5,286046999.2,N
1645462335.3,286046999.1,N
1645462355.1,286046999.3,N
1645462375.9,286047000.0,N
1645462395.7,286046998.1,N
1645462415.6,286046998.2,N
1645462435.4,286046998.7,N
1645462455.2,286047001.0,N
1645462475.1,286047000.3,N
1645462476.0,286047000.3,N
1645462495.8,286047000.4,N
1645462515.7,286047000.9,N
1645462535.5,286047002.8,N
1645462555.3,286046999.7,N
1645462575.2,286047002.7,N
1645462595.0,286047000.6,N
1645462595.9,286047000.6,N
1645462615.7,286046998.5,N
1645462635.6,286047000.9,N
1645462655.4,286046999.7,N
1645462675.3,286046999.7,N
1645462695.1,286047000.8,N
1645462715.8,286046998.1,N
1645462735.7,286047000.9,N
1645462755.5,286046998.3,N
1645462775.4,286046998.6,N
1645462795.2,286046998.4,N
